Crosby, ND

7:19 PM CST on February 05, 2016 (GMT -0600)
Crosby

Weather History for KD50 - August, 2014

Change the Weather History Date:

Friday, August 15, 2014

  Actual Average (KISN) Record (KISN)
Temperature  
Mean Temperature 73 °F 70 °F  
Max Temperature 84 °F 85 °F 100 °F (1988)
Min Temperature 62 °F 55 °F 41 °F (1897)
Degree Days  
Heating Degree Days 0 1  
Month to date heating degree days 15  
Since 1 June heating degree days 159  
Since 1 July heating degree days 39  
Cooling Degree Days 8 6  
Month to date cooling degree days 100  
Year to date cooling degree days 363  
Since 1 June cooling degree days 350  
Growing Degree Days 23 (Base 50)    
Moisture  
Dew Point 69 °F    
Average Humidity 92    
Maximum Humidity 100    
Minimum Humidity 58    
Precipitation  
Precipitation 0.00 in 0.05 in 1.23 in (1968)
Month to date precipitation 0.72  
Year to date precipitation 10.39  
Sea Level Pressure  
Sea Level Pressure 29.89 in    
Wind  
Wind Speed 3 mph (North)    
Max Wind Speed 10 mph    
Max Gust Speed -    
T = Trace of Precipitation, MM = Missing Value Source: NWS Daily Summary

Daily Weather History Graph

Daily Weather History Graph

Search for Another Location

Airport or City:

Trip Planner

Search our weather history database for the weather conditions in past years. The results will help you decide how hot, cold, wet, or windy it might be!

Date:

Astronomy

Aug. 15, 2014 Rise Set
Actual Time 6:45 AM CDT 9:08 PM CDT
Civil Twilight 6:10 AM CDT 9:43 PM CDT
Nautical Twilight 5:26 AM CDT 10:27 PM CDT
Astronomical Twilight 4:35 AM CDT 11:17 PM CDT
Moon 11:37 PM CDT (8/15) 1:04 PM CDT (8/15)
Length of Visible Light 15h 32m
Length of Day
14h 22m
Waning Gibbous, 69% of the Moon is Illuminated
Aug 15
Waning Gibbous
Aug 17
Last Quarter
Aug 25
New
Sep 2
First Quarter
Sep 8
Full

Hourly Weather History & Observations

Time (CDT) Temp. Heat Index Dew Point Humidity Pressure Visibility Wind Dir Wind Speed Gust Speed Precip Events Conditions
12:15 AM 66.2 °F - 66.2 °F 100% 29.86 in - Calm Calm - N/A   Unknown
12:35 AM 66.2 °F - 66.2 °F 100% 29.86 in - Calm Calm - N/A   Unknown
12:55 AM 66.2 °F - 66.2 °F 100% 29.86 in - Calm Calm - N/A   Unknown
1:15 AM 66.2 °F - 66.2 °F 100% 29.87 in - Calm Calm - N/A   Unknown
1:35 AM 66.2 °F - 66.2 °F 100% 29.86 in - Calm Calm - N/A   Unknown
1:55 AM 66.2 °F - 66.2 °F 100% 29.87 in - NNW 3.5 mph - N/A   Unknown
2:15 AM 64.4 °F - 64.4 °F 100% 29.87 in - Calm Calm - N/A   Unknown
2:35 AM 64.4 °F - 64.4 °F 100% 29.87 in - Calm Calm - N/A   Unknown
2:55 AM 62.6 °F - 62.6 °F 100% 29.87 in - Calm Calm - N/A   Unknown
3:15 AM 62.6 °F - 62.6 °F 100% 29.87 in - Calm Calm - N/A   Unknown
3:35 AM 62.6 °F - 62.6 °F 100% 29.86 in - Calm Calm - N/A   Unknown
3:55 AM 62.6 °F - 62.6 °F 100% 29.85 in - NNW 4.6 mph - N/A   Unknown
4:15 AM 64.4 °F - 64.4 °F 100% 29.86 in - North 6.9 mph - N/A   Unknown
4:35 AM 62.6 °F - 62.6 °F 100% 29.86 in - Calm Calm - N/A   Unknown
4:55 AM 62.6 °F - 62.6 °F 100% 29.87 in - Calm Calm - N/A   Overcast
5:15 AM 62.6 °F - 62.6 °F 100% 29.87 in - WNW 3.5 mph - N/A   Overcast
5:35 AM 62.6 °F - 62.6 °F 100% 29.88 in - WNW 4.6 mph - N/A   Overcast
5:55 AM 62.6 °F - 62.6 °F 100% 29.87 in - Calm Calm - N/A   Overcast
6:15 AM 62.6 °F - 62.6 °F 100% 29.87 in - Calm Calm - N/A   Overcast
6:35 AM 62.6 °F - 62.6 °F 100% 29.87 in - Calm Calm - N/A   Overcast
6:55 AM 62.6 °F - 62.6 °F 100% 29.89 in - Calm Calm - N/A   Overcast
7:15 AM 62.6 °F - 62.6 °F 100% 29.89 in - Calm Calm - N/A   Overcast
7:35 AM 64.4 °F - 64.4 °F 100% 29.89 in - Calm Calm - N/A   Overcast
7:55 AM 64.4 °F - 64.4 °F 100% 29.90 in - SSW 4.6 mph - N/A   Overcast
8:15 AM 66.2 °F - 66.2 °F 100% 29.89 in - NW 4.6 mph - N/A   Overcast
8:35 AM 66.2 °F - 66.2 °F 100% 29.89 in - NNW 5.8 mph - N/A   Overcast
9:15 AM 66.2 °F - 66.2 °F 100% 29.91 in - Calm Calm - N/A   Overcast
9:35 AM 68.0 °F - 68.0 °F 100% 29.91 in - NNW 6.9 mph - N/A   Overcast
9:55 AM 66.2 °F - 66.2 °F 100% 29.91 in - NNW 3.5 mph - N/A   Overcast
10:15 AM 68.0 °F - 68.0 °F 100% 29.91 in - NW 3.5 mph - N/A   Overcast
10:35 AM 68.0 °F - 68.0 °F 100% 29.91 in - NNW 4.6 mph - N/A   Unknown
10:55 AM 71.6 °F - 71.6 °F 100% 29.91 in - North 5.8 mph - N/A   Unknown
11:15 AM 73.4 °F - 73.4 °F 100% 29.91 in - North 4.6 mph - N/A   Unknown
11:35 AM 75.2 °F - 75.2 °F 100% 29.91 in - North 4.6 mph - N/A   Unknown
11:55 AM 75.2 °F - 75.2 °F 100% 29.90 in - North 5.8 mph - N/A   Unknown
12:15 PM 77.0 °F - 75.2 °F 94% 29.90 in - NNE 6.9 mph - N/A   Unknown
12:35 PM 77.0 °F - 75.2 °F 94% 29.91 in - NNE 6.9 mph - N/A   Unknown
12:55 PM 77.0 °F - 75.2 °F 94% 29.91 in - NNE 4.6 mph - N/A   Unknown
1:15 PM 77.0 °F - 75.2 °F 94% 29.90 in - North 4.6 mph - N/A   Unknown
1:35 PM 80.6 °F 85.4 °F 73.4 °F 79% 29.90 in - North 5.8 mph - N/A   Clear
1:55 PM 80.6 °F 84.6 °F 71.6 °F 74% 29.90 in - ENE 4.6 mph - N/A   Clear
2:15 PM 82.4 °F 87.2 °F 71.6 °F 70% 29.90 in - NE 5.8 mph - N/A   Clear
2:35 PM 82.4 °F 87.2 °F 71.6 °F 70% 29.90 in - NNE 5.8 mph - N/A   Clear
2:55 PM 82.4 °F 87.2 °F 71.6 °F 70% 29.90 in - NNE 6.9 mph - N/A   Clear
3:15 PM 82.4 °F 87.2 °F 71.6 °F 70% 29.90 in - NNE 4.6 mph - N/A   Clear
3:35 PM 82.4 °F 87.2 °F 71.6 °F 70% 29.90 in - North 5.8 mph - N/A   Clear
3:55 PM 82.4 °F 86.3 °F 69.8 °F 66% 29.89 in - NNW 3.5 mph - N/A   Clear
4:15 PM 82.4 °F 86.3 °F 69.8 °F 66% 29.89 in - NNW 4.6 mph - N/A   Clear
4:55 PM 84.2 °F 87.3 °F 68.0 °F 58% 29.89 in - NW 4.6 mph - N/A   Clear
5:15 PM 84.2 °F 87.3 °F 68.0 °F 58% 29.89 in - North 3.5 mph - N/A   Clear
5:35 PM 82.4 °F 85.4 °F 68.0 °F 62% 29.89 in - NNW 6.9 mph - N/A   Clear
5:55 PM 80.6 °F 84.6 °F 71.6 °F 74% 29.88 in - NNW 4.6 mph - N/A   Clear
6:15 PM 82.4 °F 87.2 °F 71.6 °F 70% 29.88 in - NNE 4.6 mph - N/A   Clear
6:35 PM 82.4 °F 87.2 °F 71.6 °F 70% 29.88 in - North 4.6 mph - N/A   Clear
6:55 PM 80.6 °F 85.4 °F 73.4 °F 79% 29.88 in - NNE 4.6 mph - N/A   Clear
7:15 PM 80.6 °F 86.2 °F 75.2 °F 84% 29.88 in - NNE 5.8 mph - N/A   Clear
7:35 PM 78.8 °F - 73.4 °F 83% 29.88 in - North 6.9 mph - N/A   Clear
7:55 PM 77.0 °F - 75.2 °F 94% 29.88 in - North 5.8 mph - N/A   Unknown
8:15 PM 75.2 °F - 75.2 °F 100% 29.87 in - NNE 4.6 mph - N/A   Unknown
8:35 PM 73.4 °F - 73.4 °F 100% 29.87 in - North 4.6 mph - N/A   Unknown
8:55 PM 73.4 °F - 73.4 °F 100% 29.88 in - NNW 9.2 mph - N/A   Unknown
9:15 PM 73.4 °F - 73.4 °F 100% 29.89 in - NNW 8.1 mph - N/A   Unknown
9:35 PM 71.6 °F - 71.6 °F 100% 29.90 in - NNE 3.5 mph - N/A   Unknown
9:55 PM 69.8 °F - 69.8 °F 100% 29.90 in - Calm Calm - N/A   Unknown
10:15 PM 68.0 °F - 68.0 °F 100% 29.91 in - Calm Calm - N/A   Unknown
10:35 PM 68.0 °F - 68.0 °F 100% 29.90 in - NW 4.6 mph - N/A   Unknown
10:55 PM 66.2 °F - 66.2 °F 100% 29.90 in - NW 8.1 mph - N/A   Unknown
11:15 PM 68.0 °F - 68.0 °F 100% 29.90 in - WNW 8.1 mph - N/A   Unknown
11:35 PM 68.0 °F - 68.0 °F 100% 29.91 in - WNW 10.4 mph - N/A   Unknown